Time,TemperatureF,DewpointF,PressureIn,WindDirection,WindDirectionDegrees,WindSpeedMPH,WindSpeedGustMPH,Humidity,HourlyPrecipIn,Conditions,Clouds,dailyrainin,SolarRadiationWatts/m^2,SoftwareType,DateUTC
2013-06-30 00:02:00,80.0,47.0,-100.00,WNW,299,12.0,22.0,31,0.00,,,0.00,0.000000,,2013-06-30 07:02:00,
2013-06-30 00:12:00,80.0,47.0,-100.00,WNW,299,12.0,22.0,31,0.00,,,0.00,0.000000,,2013-06-30 07:12:00,
2013-06-30 00:22:00,80.0,47.0,-100.00,WNW,299,12.0,22.0,31,0.00,,,0.00,0.000000,,2013-06-30 07:22:00,
2013-06-30 00:53:00,78.0,47.0,-100.00,West,272,10.0,19.0,33,0.00,,,0.00,0.000000,,2013-06-30 07:53:00,
2013-06-30 01:02:00,78.0,47.0,-100.00,West,272,10.0,19.0,33,0.00,,,0.00,0.000000,,2013-06-30 08:02:00,
2013-06-30 01:53:00,77.0,47.0,-100.00,West,275,10.0,18.0,35,0.00,,,0.00,0.000000,,2013-06-30 08:53:00,
2013-06-30 02:01:00,77.0,47.0,-100.00,West,275,10.0,18.0,35,0.00,,,0.00,0.000000,,2013-06-30 09:01:00,
2013-06-30 02:53:00,76.0,46.0,-100.00,West,280,9.0,17.0,35,0.00,,,0.00,0.000000,,2013-06-30 09:53:00,
2013-06-30 03:53:00,77.0,46.0,-100.00,WNW,289,9.0,15.0,33,0.00,,,0.00,0.000000,,2013-06-30 10:53:00,
2013-06-30 04:53:00,76.0,45.0,-100.00,WNW,290,9.0,14.0,33,0.00,,,0.00,0.000000,,2013-06-30 11:53:00,
2013-06-30 05:52:00,75.0,44.0,-100.00,NW,310,8.0,16.0,33,-99.99,,,-99.99,0.000000,,2013-06-30 12:52:00,
2013-06-30 09:53:00,82.0,52.0,-100.00,WNW,286,5.0,10.0,35,0.00,,,0.00,524.000000,,2013-06-30 16:53:00,
2013-06-30 10:01:00,82.0,52.0,-100.00,WNW,286,5.0,10.0,35,0.00,,,0.00,524.000000,,2013-06-30 17:01:00,
2013-06-30 10:11:00,82.0,52.0,-100.00,WNW,286,5.0,10.0,35,0.00,,,0.00,524.000000,,2013-06-30 17:11:00,
2013-06-30 10:23:00,82.0,52.0,-100.00,WNW,286,5.0,10.0,35,0.00,,,0.00,524.000000,,2013-06-30 17:23:00,
2013-06-30 10:52:00,85.0,53.0,-100.00,WSW,250,6.0,9.0,33,0.00,,,0.00,688.000000,,2013-06-30 17:52:00,
2013-06-30 11:01:00,85.0,53.0,-100.00,WSW,250,6.0,9.0,33,0.00,,,0.00,688.000000,,2013-06-30 18:01:00,
2013-06-30 11:12:00,85.0,53.0,-100.00,WSW,250,6.0,9.0,33,0.00,,,0.00,688.000000,,2013-06-30 18:12:00,
2013-06-30 11:22:00,85.0,53.0,-100.00,WSW,250,6.0,9.0,33,0.00,,,0.00,688.000000,,2013-06-30 18:22:00,
2013-06-30 11:53:00,88.0,55.0,-100.00,WSW,247,8.0,10.0,33,0.00,,,0.00,826.000000,,2013-06-30 18:53:00,
2013-06-30 12:01:00,88.0,55.0,-100.00,WSW,247,8.0,10.0,33,0.00,,,0.00,826.000000,,2013-06-30 19:01:00,
2013-06-30 12:11:00,88.0,55.0,-100.00,WSW,247,8.0,10.0,33,0.00,,,0.00,826.000000,,2013-06-30 19:11:00,
2013-06-30 12:22:00,88.0,55.0,-100.00,WSW,247,8.0,10.0,33,0.00,,,0.00,826.000000,,2013-06-30 19:22:00,
2013-06-30 12:53:00,90.0,57.0,-100.00,WSW,238,7.0,11.0,33,0.00,,,0.00,914.000000,,2013-06-30 19:53:00,
2013-06-30 13:01:00,90.0,57.0,-100.00,WSW,238,7.0,11.0,33,0.00,,,0.00,914.000000,,2013-06-30 20:01:00,
2013-06-30 13:11:00,90.0,57.0,-100.00,WSW,238,7.0,11.0,33,0.00,,,0.00,914.000000,,2013-06-30 20:11:00,
2013-06-30 13:22:00,90.0,57.0,-100.00,WSW,238,7.0,11.0,33,0.00,,,0.00,914.000000,,2013-06-30 20:22:00,
2013-06-30 13:52:00,93.0,57.0,-100.00,WSW,254,10.0,15.0,30,0.00,,,0.00,950.000000,,2013-06-30 20:52:00,
2013-06-30 14:01:00,93.0,57.0,-100.00,WSW,254,10.0,15.0,30,0.00,,,0.00,950.000000,,2013-06-30 21:01:00,
2013-06-30 14:11:00,93.0,57.0,-100.00,WSW,254,10.0,15.0,30,0.00,,,0.00,950.000000,,2013-06-30 21:11:00,
2013-06-30 14:22:00,93.0,57.0,-100.00,WSW,254,10.0,15.0,30,0.00,,,0.00,950.000000,,2013-06-30 21:22:00,
2013-06-30 14:53:00,94.0,57.0,-100.00,WSW,254,11.0,17.0,29,0.00,,,0.00,936.000000,,2013-06-30 21:53:00,
2013-06-30 15:01:00,94.0,57.0,-100.00,WSW,254,11.0,17.0,29,0.00,,,0.00,936.000000,,2013-06-30 22:01:00,
2013-06-30 15:11:00,94.0,57.0,-100.00,WSW,254,11.0,17.0,29,0.00,,,0.00,936.000000,,2013-06-30 22:11:00,
2013-06-30 15:22:00,94.0,57.0,-100.00,WSW,254,11.0,17.0,29,0.00,,,0.00,936.000000,,2013-06-30 22:22:00,
2013-06-30 15:53:00,95.0,55.0,-100.00,WSW,250,13.0,17.0,26,0.00,,,0.00,879.000000,,2013-06-30 22:53:00,
2013-06-30 16:01:00,95.0,55.0,-100.00,WSW,250,13.0,17.0,26,0.00,,,0.00,879.000000,,2013-06-30 23:01:00,
2013-06-30 16:11:00,95.0,55.0,-100.00,WSW,250,13.0,17.0,26,0.00,,,0.00,879.000000,,2013-06-30 23:11:00,
2013-06-30 16:22:00,95.0,55.0,-100.00,WSW,250,13.0,17.0,26,0.00,,,0.00,879.000000,,2013-06-30 23:22:00,
2013-06-30 16:53:00,95.0,51.0,-100.00,WSW,248,13.0,18.0,23,0.00,,,0.00,654.000000,,2013-06-30 23:53:00,
2013-06-30 17:01:00,95.0,51.0,-100.00,WSW,248,13.0,18.0,23,0.00,,,0.00,654.000000,,2013-07-01 00:01:00,
2013-06-30 17:11:00,95.0,51.0,-100.00,WSW,248,13.0,18.0,23,0.00,,,0.00,654.000000,,2013-07-01 00:11:00,
2013-06-30 17:22:00,95.0,51.0,-100.00,WSW,248,13.0,18.0,23,0.00,,,0.00,654.000000,,2013-07-01 00:22:00,
2013-06-30 17:52:00,91.0,51.0,-100.00,WSW,253,12.0,17.0,26,-99.99,,,-99.99,600.000000,,2013-07-01 00:52:00,
2013-06-30 18:01:00,91.0,51.0,-100.00,WSW,253,12.0,17.0,26,-99.99,,,-99.99,600.000000,,2013-07-01 01:01:00,
2013-06-30 18:11:00,91.0,51.0,-100.00,WSW,253,12.0,17.0,26,-99.99,,,-99.99,600.000000,,2013-07-01 01:11:00,
2013-06-30 18:22:00,91.0,51.0,-100.00,WSW,253,12.0,17.0,26,-99.99,,,-99.99,600.000000,,2013-07-01 01:22:00,
2013-06-30 18:52:00,88.0,50.0,-100.00,WSW,256,12.0,16.0,27,0.00,,,-99.99,413.000000,,2013-07-01 01:52:00,
2013-06-30 19:02:00,88.0,50.0,-100.00,WSW,256,12.0,16.0,27,0.00,,,-99.99,413.000000,,2013-07-01 02:02:00,
2013-06-30 19:11:00,88.0,50.0,-100.00,WSW,256,12.0,16.0,27,0.00,,,-99.99,413.000000,,2013-07-01 02:11:00,
2013-06-30 19:22:00,88.0,50.0,-100.00,WSW,256,12.0,16.0,27,0.00,,,-99.99,413.000000,,2013-07-01 02:22:00,
2013-06-30 19:54:00,85.0,47.0,-100.00,WSW,258,9.0,14.0,27,0.00,,,-99.99,222.000000,,2013-07-01 02:54:00,
2013-06-30 20:01:00,85.0,47.0,-100.00,WSW,258,9.0,14.0,27,0.00,,,-99.99,222.000000,,2013-07-01 03:01:00,
2013-06-30 20:11:00,85.0,47.0,-100.00,WSW,258,9.0,14.0,27,0.00,,,-99.99,222.000000,,2013-07-01 03:11:00,
2013-06-30 20:23:00,85.0,47.0,-100.00,WSW,258,9.0,14.0,27,0.00,,,-99.99,222.000000,,2013-07-01 03:23:00,
2013-06-30 20:52:00,80.0,46.0,-100.00,West,259,8.0,11.0,30,0.00,,,-99.99,75.000000,,2013-07-01 03:52:00,
2013-06-30 21:01:00,80.0,46.0,-100.00,West,259,8.0,11.0,30,0.00,,,-99.99,75.000000,,2013-07-01 04:01:00,
2013-06-30 21:11:00,80.0,46.0,-100.00,West,259,8.0,11.0,30,0.00,,,-99.99,75.000000,,2013-07-01 04:11:00,
2013-06-30 21:22:00,80.0,46.0,-100.00,West,259,8.0,11.0,30,0.00,,,-99.99,75.000000,,2013-07-01 04:22:00,
2013-06-30 21:53:00,80.0,48.0,-100.00,West,276,10.0,13.0,33,0.00,,,-99.99,2.000000,,2013-07-01 04:53:00,
2013-06-30 22:01:00,80.0,48.0,-100.00,West,276,10.0,13.0,33,0.00,,,-99.99,2.000000,,2013-07-01 05:01:00,
2013-06-30 22:11:00,80.0,48.0,-100.00,West,276,10.0,13.0,33,0.00,,,-99.99,2.000000,,2013-07-01 05:11:00,
2013-06-30 22:22:00,80.0,48.0,-100.00,West,276,10.0,13.0,33,0.00,,,-99.99,2.000000,,2013-07-01 05:22:00,
2013-06-30 22:52:00,79.0,47.0,-100.00,WNW,289,7.0,9.0,33,0.00,,,-99.99,0.000000,,2013-07-01 05:52:00,
2013-06-30 23:53:00,76.0,49.0,-100.00,West,260,7.0,10.0,38,-99.99,,,-99.99,0.000000,,2013-07-01 06:53:00,